Location: McFarlands Corners
(41.4117°N, 81.3382°W)
Time: 01:48:11
(UTC+00:00)

Tiros 1 - Pass Details

Date: 18 February 2026
Orbit: 618 x 649 km, 48.4° (Epoch: 10 March)

Event Time Altitude Azimuth Distance (km) Brightness Sun altitude
Rises 19:58:44 0° 295° (WNW) 2,890 10.7 28.2°
Reaches altitude 10° 20:01:07 10° 289° (WNW) 1,980 10.0 27.9°
Maximum altitude 20:05:26 43° 218° (SW) 865 9.8 27.4°
Drops below altitude 10° 20:09:43 10° 147° (SSE) 1,973 9.9 26.8°
Sets 20:12:06 0° 140° (SE) 2,877 10.6 26.5°
